Starlink 31053

operational
NORAD ID: 58549 Int'l Des: 2023-192 Owner: SPXS Country: US Constellation: starlink
LEOCIRCULAR

About Starlink 31053

Description loading...

Live Position

Loading 3D Globe...

Upcoming Passes

Altitude History

Altitude vs Time

uPlot chart will show altitude changes over time

Two-Line Element Set

1 58549U 23192U 26035.78524336 .00000791 00000-0 38839-4 0 9994
2 58549 53.1596 215.8520 0001021 76.0876 284.0238 15.30195036120949
Epoch: Feb 4, 2026 • Age: 17 hours

Current Status

Altitude 476.4 km
Velocity 7.63 km/s
Sub-Earth Point -2.47°S, 106.11°W
Launch Date Dec 8, 2023
Age 2.1 years
Type internet

Technical Details

Classification Payload
Mass 730.00 kg
Dry Mass 700.00 kg
Total Mass 730.00 kg
Length 0.30 m
Diameter 4.10 m
Span 29.00 m
Shape Box + pan
Manufacturer SPXS
Bus Type Starlink V2M
Phase Status In Orbit
Owner/State SPXS/US

Large Constellations

Loading constellations...